KC1TWD Weather Reports


time (UTC)temp
C
wind
direction
speed
KPH
gust
KPH
rain 1hr
cm
rain 24hr
cm
rain mn
cm
humidity
%
barometer
mb
20260504192819 22 50 1.6 1.6 0.00 0.00 0.00 32 1005.9
20260504192317 22 218 1.6 6.4 0.00 0.00 0.00 33 1005.8
20260504191815 21 328 3.2 4.8 0.00 0.00 0.00 32 1005.7
20260504191313 21 302 3.2 6.4 0.00 0.00 0.00 36 1005.8
20260504190808 21 306 1.6 4.8 0.00 0.00 0.00 35 1006.1
20260504190304 21 305 3.2 9.7 0.00 0.00 0.00 33 1005.8
20260504185801 21 212 3.2 6.4 0.00 0.00 0.00 34 1005.7
20260504185258 21 70 1.6 4.8 0.00 0.00 0.00 33 1005.9
20260504184754 22 314 6.4 9.7 0.00 0.00 0.00 33 1006.0
20260504184250 21 278 4.8 11.3 0.00 0.00 0.00 34 1005.8
20260504183746 21 93 1.6 4.8 0.00 0.00 0.00 33 1005.8
20260504183243 20 167 3.2 6.4 0.00 0.00 0.00 35 1005.9
20260504182741 20 293 0.0 4.8 0.00 0.00 0.00 36 1006.1
20260504182238 20 261 1.6 3.2 0.00 0.00 0.00 38 1006.1
20260504181735 20 182 1.6 4.8 0.00 0.00 0.00 35 1005.9
20260504181232 19 215 0.0 4.8 0.00 0.00 0.00 36 1006.1
20260504180731 19 292 1.6 3.2 0.00 0.00 0.00 36 1006.1
20260504180230 19 183 3.2 6.4 0.00 0.00 0.00 37 1006.2
20260504175727 19 127 1.6 1.6 0.00 0.00 0.00 37 1006.3
20260504175224 20 174 4.8 6.4 0.00 0.00 0.00 37 1006.4
20260504174722 20 263 1.6 9.7 0.00 0.00 0.00 34 1006.3
20260504174220 21 151 1.6 12.9 0.00 0.00 0.00 34 1006.1
20260504173715 21 310 3.2 9.7 0.00 0.00 0.00 34 1006.4
20260504173213 21 193 4.8 11.3 0.00 0.00 0.00 37 1006.5
20260504172709 20 169 4.8 12.9 0.00 0.00 0.00 34 1006.5
20260504172206 20 329 6.4 12.9 0.00 0.00 0.00 35 1006.5
20260504171702 19 171 0.0 4.8 0.00 0.00 0.00 36 1006.4
20260504171159 20 117 1.6 6.4 0.00 0.00 0.00 35 1006.6
20260504170656 20 209 3.2 9.7 0.00 0.00 0.00 34 1006.4
20260504170154 21 149 3.2 6.4 0.00 0.00 0.00 34 1006.5
20260504160112 20 160 4.8 6.4 0.00 0.00 0.00 33 1006.6
20260504151044 18 272 0.0 9.7 0.00 0.00 0.00 36 1007.3
20260504150542 18 294 1.6 4.8 0.00 0.00 0.00 40 1007.3
20260504141008 16 175 1.6 9.7 0.00 0.00 0.00 42 1007.8
20260504140505 16 85 6.4 9.7 0.00 0.00 0.00 41 1008.1
20260504130424 14 308 0.0 3.2 0.00 0.00 0.00 46 1008.7
20260504110310 6 198 0.0 0.0 0.00 0.00 0.00 79 1009.4
20260504100229 6 182 0.0 0.0 0.00 0.00 0.00 82 1009.5
20260504081622 5 155 0.0 0.0 0.00 0.00 0.00 80 1009.4
20260504081118 5 215 0.0 0.0 0.00 0.00 0.00 76 1009.4
20260504080615 5 191 0.0 0.0 0.00 0.00 0.00 79 1009.2
20260504080111 5 146 0.0 1.6 0.00 0.00 0.00 77 1009.4
20260504050427 0 162 0.0 0.0 0.00 0.00 0.00 93 1009.5
20260504045919 -17 0.0 0.0 0.00 0.00 0.00 1009.5
20260504045414 -17 0.0 0.0 0.00 0.00 0.00 1009.6
20260504044911 -17 0.0 0.0 0.00 0.00 0.00 1009.5
20260504044408 -17 0.0 0.0 0.00 0.00 0.00 1009.6
20260504043906 0 177 0.0 0.0 0.00 0.00 0.00 94 1009.7
20260504043403 0 177 0.0 0.0 0.00 0.00 0.00 94 1009.7
20260504042900 0 167 0.0 0.0 0.00 0.00 0.00 94 1009.6
20260504042356 0 167 0.0 0.0 0.00 0.00 0.00 94 1009.5
20260504041853 0 167 0.0 0.0 0.00 0.00 0.00 94 1009.6
20260504041349 0 166 0.0 0.0 0.00 0.00 0.00 94 1009.6
20260504040845 0 167 0.0 0.0 0.00 0.00 0.00 94 1009.4
20260504040343 0 167 0.0 0.0 0.00 0.00 0.00 94 1009.5
20260504035838 0 167 0.0 0.0 0.00 0.00 0.00 93 1009.4
20260504035337 0 166 0.0 0.0 0.00 0.00 0.00 93 1009.5
20260504034833 0 166 0.0 0.0 0.00 0.00 0.00 93 1009.4
20260504034331 0 160 0.0 0.0 0.00 0.00 0.00 93 1009.7
20260504033827 0 166 0.0 0.0 0.00 0.00 0.00 92 1009.5
20260504033326 0 172 0.0 0.0 0.00 0.00 0.00 92 1009.5
20260504032821 0 169 0.0 0.0 0.00 0.00 0.00 92 1009.4
20260504032319 0 165 0.0 0.0 0.00 0.00 0.00 91 1009.3
20260504031816 0 165 0.0 0.0 0.00 0.00 0.00 91 1009.3
20260504031313 -17 0.0 0.0 0.00 0.00 0.00 1009.4
20260504030809 1 171 0.0 0.0 0.00 0.00 0.00 90 1009.2
20260504030307 1 171 0.0 0.0 0.00 0.00 0.00 90 1009.3
20260504025803 1 187 0.0 0.0 0.00 0.00 0.00 89 1009.3
20260504025300 1 165 0.0 0.0 0.00 0.00 0.00 89 1009.5
20260504024756 1 165 0.0 0.0 0.00 0.00 0.00 89 1009.4
20260504024253 1 165 0.0 0.0 0.00 0.00 0.00 88 1009.3
20260504023750 1 165 0.0 0.0 0.00 0.00 0.00 88 1009.3
20260504023246 1 165 0.0 0.0 0.00 0.00 0.00 87 1009.5
20260504022742 -17 0.0 0.0 0.00 0.00 0.00 1009.5
20260504022238 -17 0.0 0.0 0.00 0.00 0.00 1009.3
20260504021735 2 182 0.0 0.0 0.00 0.00 0.00 85 1009.5
20260504021233 2 183 0.0 0.0 0.00 0.00 0.00 84 1009.5
20260504020730 2 183 0.0 0.0 0.00 0.00 0.00 85 1009.3
20260504020226 2 177 0.0 0.0 0.00 0.00 0.00 82 1009.4
20260504015722 2 177 0.0 0.0 0.00 0.00 0.00 82 1009.3
20260504015219 -17 0.0 0.0 0.00 0.00 0.00 1009.3
20260504014714 3 223 0.0 0.0 0.00 0.00 0.00 79 1009.2
20260504014212 3 223 0.0 0.0 0.00 0.00 0.00 79 1009.1
20260504013709 3 216 0.0 0.0 0.00 0.00 0.00 77 1009.1
20260504013206 3 192 0.0 0.0 0.00 0.00 0.00 78 1009.1
20260504012703 3 216 0.0 0.0 0.00 0.00 0.00 76 1009.1
20260504012201 3 212 0.0 0.0 0.00 0.00 0.00 75 1009.1
20260504011658 3 170 0.0 0.0 0.00 0.00 0.00 73 1008.8
20260504011154 4 148 0.0 0.0 0.00 0.00 0.00 73 1008.7
20260504010650 4 159 0.0 0.0 0.00 0.00 0.00 72 1008.8
20260504010146 5 166 0.0 0.0 0.00 0.00 0.00 70 1008.7
20260504005643 -17 0.0 0.0 0.00 0.00 0.00 1008.8
20260504005140 -17 0.0 0.0 0.00 0.00 0.00 1008.5
20260504004638 -17 0.0 0.0 0.00 0.00 0.00 1008.5
20260504004135 -17 0.0 0.0 0.00 0.00 0.00 1008.6
20260504003631 -17 0.0 0.0 0.00 0.00 0.00 1008.5
20260504003128 -17 0.0 0.0 0.00 0.00 0.00 1008.4
20260504002624 -17 0.0 0.0 0.00 0.00 0.00 1008.4
20260504002122 6 176 0.0 0.0 0.00 0.00 0.00 60 1008.4
20260504001620 6 176 0.0 0.0 0.00 0.00 0.00 60 1008.3
20260504001115 -17 0.0 0.0 0.00 0.00 0.00 1008.4
20260504000613 -17 0.0 0.0 0.00 0.00 0.00 1008.1
20260504000110 -17 0.0 0.0 0.00 0.00 0.00 1008.0
20260503235609 -17 0.0 0.0 0.00 0.00 0.00 1008.0
20260503235105 -17 0.0 0.0 0.00 0.00 0.00 1008.0
20260503234603 8 90 1.6 1.6 0.00 0.00 0.00 51 1008.1
20260503234101 8 90 1.6 1.6 0.00 0.00 0.00 51 1008.0
20260503233557 8 301 0.0 0.0 0.00 0.00 0.00 51 1008.0
20260503233053 8 158 0.0 0.0 0.00 0.00 0.00 50 1007.9
20260503232550 8 154 0.0 0.0 0.00 0.00 0.00 49 1007.8
20260503232047 8 154 0.0 0.0 0.00 0.00 0.00 49 1008.1
20260503231545 9 241 1.6 1.6 0.00 0.00 0.00 47 1007.8
20260503231042 9 198 0.0 0.0 0.00 0.00 0.00 48 1007.8
20260503230538 9 295 1.6 3.2 0.00 0.00 0.00 47 1007.7
20260503230036 9 241 0.0 3.2 0.00 0.00 0.00 46 1007.7
20260503225533 9 346 0.0 1.6 0.00 0.00 0.00 47 1007.6
20260503225027 10 56 0.0 0.0 0.00 0.00 0.00 45 1007.6
20260503224526 10 309 1.6 1.6 0.00 0.00 0.00 47 1007.5
20260503224023 9 330 1.6 3.2 0.00 0.00 0.00 45 1007.4
20260503223521 10 338 0.0 4.8 0.00 0.00 0.00 46 1007.7
20260503223016 10 283 3.2 4.8 0.00 0.00 0.00 44 1007.4
20260503222515 10 328 1.6 6.4 0.00 0.00 0.00 44 1007.6
20260503222012 10 91 1.6 9.7 0.00 0.00 0.00 44 1007.2
20260503221510 10 119 0.0 6.4 0.00 0.00 0.00 43 1007.4
20260503221008 10 76 0.0 1.6 0.00 0.00 0.00 46 1007.4
20260503220503 10 278 1.6 1.6 0.00 0.00 0.00 43 1007.3
20260503220000 10 308 1.6 3.2 0.00 0.00 0.00 43 1007.5
20260503215457 10 189 0.0 4.8 0.00 0.00 0.00 43 1007.3
20260503214954 10 10 3.2 4.8 0.00 0.00 0.00 43 1007.3
20260503214453 10 169 3.2 14.5 0.00 0.00 0.00 44 1007.3
20260503213949 10 270 0.0 4.8 0.00 0.00 0.00 45 1007.2
20260503213448 10 349 3.2 6.4 0.00 0.00 0.00 42 1007.3
20260503212943 10 269 3.2 4.8 0.00 0.00 0.00 43 1007.1
20260503212441 10 191 3.2 6.4 0.00 0.00 0.00 43 1007.2
20260503211938 10 303 1.6 6.4 0.00 0.00 0.00 44 1007.0
20260503211435 10 316 1.6 9.7 0.00 0.00 0.00 41 1007.0
20260503210931 10 118 3.2 9.7 0.00 0.00 0.00 41 1006.9
20260503210428 10 320 0.0 3.2 0.00 0.00 0.00 42 1006.9
20260503205922 10 280 4.8 4.8 0.00 0.00 0.00 41 1006.7
20260503205420 10 250 0.0 14.5 0.00 0.00 0.00 42 1006.8
20260503204916 10 267 8.0 11.3 0.00 0.00 0.00 40 1006.9
20260503204414 10 108 1.6 4.8 0.00 0.00 0.00 41 1006.7
20260503203910 10 295 6.4 16.1 0.00 0.00 0.00 42 1006.6
20260503203408 10 328 0.0 1.6 0.00 0.00 0.00 43 1006.6
20260503202904 10 47 1.6 11.3 0.00 0.00 0.00 42 1006.3
20260503202403 10 285 3.2 12.9 0.00 0.00 0.00 42 1006.6
20260503201901 10 287 3.2 9.7 0.00 0.00 0.00 40 1006.6
20260503201357 11 324 3.2 4.8 0.00 0.00 0.00 42 1006.6
20260503200855 11 307 3.2 16.1 0.00 0.00 0.00 41 1006.5
20260503200351 10 13 6.4 6.4 0.00 0.00 0.00 42 1006.6
20260503195848 10 208 4.8 6.4 0.00 0.00 0.00 39 1006.5
20260503195344 10 300 6.4 11.3 0.00 0.00 0.00 40 1006.6
20260503194842 11 301 3.2 4.8 0.00 0.00 0.00 39 1006.6
20260503194338 11 168 0.0 11.3 0.00 0.00 0.00 41 1006.4
20260503193834 10 325 0.0 6.4 0.00 0.00 0.00 42 1006.4
20260503193330 11 292 11.3 12.9 0.00 0.00 0.00 40 1006.3